Starlink 11142

operational
NORAD ID: 59957 Int'l Des: 2024-107 Owner: SPXS Country: US Constellation: starlink
LEOCIRCULAR

Über Starlink 11142

Beschreibung wird geladen...

Live-Position

3D-Globus wird geladen...

Nächste Überflüge

Höhenverlauf

Altitude vs Time

uPlot chart will show altitude changes over time

Zweizeiliger Elementsatz

1 59957U 24107N 25354.50697787 .00000021 00000-0 50260-5 0 9998
2 59957 53.1591 281.2930 0000755 97.9195 262.1909 15.69713466 89726
Epoch: 20. Dez. 2025 • Age: 16 hours

Aktueller Status

Höhe 377.8 km
Geschwindigkeit 7.68 km/s
Subsatellitenpunkt -50.85°S, 51.81°E
Startdatum 5. Juni 2024
Alter 1.5 years
Typ internet

Technische Details

Klassifizierung Payload
Masse 960.00 kg
Trockenmasse 910.00 kg
Gesamtmasse 960.00 kg
Länge 0.30 m
Durchmesser 4.10 m
Spannweite 29.00 m
Form Box + pan
Hersteller SPXS
Bus-Typ Starlink V2MD
Phasenstatus In Orbit
Besitzer/Staat SPXS/US

Große Konstellationen

Loading constellations...